User: anonymous   Login
Location: Unspecified
(0.0000°N, 0.0000°E)
Time: 15:27:20
(UTC+01:00)
Language:

ISS - Orbit

View from above orbital plane
View from above orbital plane
View from above satellite
View from above satellite

Ground track
Ground track

The orbit data is extracted from the following two-line orbital elements,

1 25544U 98067A   15026.14225112  .00011200  00000-0  17926-3 0  7802
2 25544 051.6480 073.2616 0005643 305.4439 099.5368 15.53636646925930
Epoch (UTC): 26 January 2015 03:24:50
Eccentricity: 0.0005643
inclination: 51.6480°
perigee height: 402 km
apogee height: 410 km
right ascension of ascending node: 73.2616°
argument of perigee: 305.4439°
revolutions per day: 15.53636646
mean anomaly at epoch: 99.5368°
orbit number at epoch: 92593

The dashed part of the orbit path shows where the satellite is in the earth's shadow,  

DLR